When you browse on this site, cookies collect data to enhance your experience and personalize the content and advertising you see.
Visit our Privacy Policy to learn more. By continuing to use the site, you agree to this use of cookies and data.
  • In Hungary
  • List of Countries
  • For 7 days
  • Water Temperature
  • Satellite Maps
  • Weather Map
  • News
  • Weather Widgets
  • user-avatar
    Login

    Hourly Weather Capushevo

    Today, 20 May, Monday

    Time Temperature Precipitation Wind Pressure Humidity
    00:00 +12°C° 0 mm 1 mps 747 mmHg 82%
    01:00 +11°C° 0 mm 1 mps 747 mmHg 85%
    02:00 +11°C° 0 mm 1 mps 747 mmHg 87%
    03:00 +11°C° 0 mm 1 mps 747 mmHg 86%
    04:00 +11°C° 0 mm 1 mps 747 mmHg 84%
    05:00 +11°C° 0 mm 1 mps 747 mmHg 83%
    06:00 +14°C° 0 mm 1 mps 748 mmHg 75%
    07:00 +16°C° 0 mm 1 mps 748 mmHg 67%
    08:00 +19°C° 0 mm 1 mps 748 mmHg 59%
    09:00 +21°C° 0 mm 1 mps 748 mmHg 54%
    10:00 +23°C° 0 mm 1 mps 748 mmHg 48%
    11:00 +24°C° 0 mm 1 mps 748 mmHg 43%
    12:00 +25°C° 0 mm 1 mps 748 mmHg 42%
    13:00 +25°C° 0 mm 1 mps 747 mmHg 40%
    14:00 +24°C° 0 mm 0 mps 747 mmHg 39%
    15:00 +25°C° 0 mm 1 mps 747 mmHg 41%
    16:00 +25°C° 0 mm 1 mps 747 mmHg 43%
    17:00 +24°C° 0 mm 1 mps 746 mmHg 45%
    18:00 +22°C° 0 mm 1 mps 746 mmHg 51%
    19:00 +20°C° 0 mm 1 mps 746 mmHg 57%
    20:00 +17°C° 0 mm 2 mps 746 mmHg 64%
    21:00 +16°C° 0 mm 2 mps 747 mmHg 65%
    22:00 +15°C° 0 mm 2 mps 747 mmHg 67%
    23:00 +15°C° 0 mm 2 mps 747 mmHg 69%

    Tomorrow, 21 May, Tuesday

    Time Temperature Precipitation Wind Pressure Humidity
    00:00 +14°C° 0 mm 2 mps 747 mmHg 71%
    01:00 +13°C° 0 mm 2 mps 747 mmHg 73%
    02:00 +13°C° 0 mm 2 mps 747 mmHg 75%
    03:00 +13°C° 0 mm 2 mps 746 mmHg 76%
    04:00 +14°C° 0 mm 2 mps 746 mmHg 78%
    05:00 +14°C° 0 mm 2 mps 746 mmHg 79%
    06:00 +16°C° 0 mm 2 mps 746 mmHg 73%
    07:00 +18°C° 0 mm 2 mps 746 mmHg 67%
    08:00 +20°C° 0 mm 2 mps 746 mmHg 61%
    09:00 +22°C° 0 mm 3 mps 746 mmHg 55%
    10:00 +24°C° 0 mm 3 mps 746 mmHg 50%
    11:00 +25°C° 0 mm 4 mps 745 mmHg 44%
    12:00 +25°C° 0 mm 4 mps 745 mmHg 43%
    13:00 +25°C° 0 mm 4 mps 744 mmHg 43%
    14:00 +26°C° 0 mm 4 mps 744 mmHg 42%
    15:00 +25°C° 0 mm 4 mps 744 mmHg 44%
    16:00 +25°C° 0 mm 3 mps 743 mmHg 47%
    17:00 +24°C° 0 mm 3 mps 743 mmHg 49%
    18:00 +21°C° 0 mm 3 mps 743 mmHg 56%
    19:00 +19°C° 0 mm 2 mps 742 mmHg 64%
    20:00 +17°C° 0 mm 2 mps 742 mmHg 71%
    21:00 +16°C° 0 mm 2 mps 742 mmHg 71%
    22:00 +15°C° 0 mm 2 mps 742 mmHg 71%
    23:00 +15°C° 0 mm 2 mps 742 mmHg 71%

    Day after tomorrow, 22 May, Wednesday

    Time Temperature Precipitation Wind Pressure Humidity
    00:00 +14°C° 0 mm 2 mps 742 mmHg 72%
    01:00 +14°C° 0 mm 2 mps 742 mmHg 73%
    02:00 +13°C° 0 mm 2 mps 741 mmHg 74%
    03:00 +14°C° 0 mm 2 mps 741 mmHg 75%
    04:00 +14°C° 0 mm 2 mps 741 mmHg 76%
    05:00 +14°C° 0 mm 2 mps 741 mmHg 77%
    06:00 +16°C° 0 mm 2 mps 741 mmHg 73%
    07:00 +18°C° 0 mm 2 mps 741 mmHg 69%
    08:00 +20°C° 0 mm 2 mps 740 mmHg 64%
    09:00 +21°C° 0 mm 3 mps 740 mmHg 59%
    10:00 +24°C° 0 mm 3 mps 740 mmHg 54%
    11:00 +25°C° 0 mm 3 mps 740 mmHg 49%
    12:00 +25°C° 0 mm 3 mps 739 mmHg 48%
    13:00 +26°C° 0 mm 3 mps 739 mmHg 47%
    14:00 +26°C° 0 mm 3 mps 738 mmHg 45%
    15:00 +26°C° 0.2 mm 3 mps 738 mmHg 52%
    16:00 +25°C° 0.2 mm 2 mps 738 mmHg 59%
    17:00 +24°C° 0.2 mm 2 mps 737 mmHg 65%
    18:00 +22°C° 0.4 mm 1 mps 737 mmHg 73%
    19:00 +20°C° 0.4 mm 1 mps 737 mmHg 81%
    20:00 +16°C° 0.4 mm 0 mps 737 mmHg 89%
    21:00 +18°C° 0.4 mm 1 mps 737 mmHg 90%
    22:00 +16°C° 0.4 mm 1 mps 736 mmHg 91%
    23:00 +16°C° 0.4 mm 1 mps 736 mmHg 93%

    23 May, Thursday

    Time Temperature Precipitation Wind Pressure Humidity
    00:00 +16°C° 0 mm 1 mps 736 mmHg 94%
    01:00 +15°C° 0 mm 1 mps 736 mmHg 94%
    02:00 +15°C° 0 mm 2 mps 736 mmHg 95%
    03:00 +15°C° 0 mm 2 mps 736 mmHg 95%
    04:00 +16°C° 0 mm 2 mps 736 mmHg 95%
    05:00 +16°C° 0 mm 2 mps 736 mmHg 95%
    06:00 +17°C° 0.2 mm 2 mps 736 mmHg 92%
    07:00 +18°C° 0.2 mm 2 mps 736 mmHg 89%
    08:00 +19°C° 0.2 mm 2 mps 737 mmHg 86%
    09:00 +19°C° 0.5 mm 2 mps 737 mmHg 86%
    10:00 +18°C° 0.5 mm 2 mps 737 mmHg 86%
    11:00 +18°C° 0.5 mm 3 mps 737 mmHg 85%
    12:00 +18°C° 0.3 mm 3 mps 737 mmHg 86%
    13:00 +17°C° 0.3 mm 3 mps 737 mmHg 87%
    14:00 +17°C° 0.3 mm 3 mps 737 mmHg 88%
    15:00 +17°C° 0.1 mm 2 mps 737 mmHg 87%
    16:00 +17°C° 0.1 mm 2 mps 737 mmHg 86%
    17:00 +17°C° 0.1 mm 2 mps 737 mmHg 85%
    18:00 +16°C° 0 mm 2 mps 738 mmHg 86%
    19:00 +15°C° 0 mm 2 mps 738 mmHg 88%
    20:00 +15°C° 0 mm 1 mps 738 mmHg 89%
    21:00 +14°C° 0 mm 2 mps 738 mmHg 85%
    22:00 +14°C° 0 mm 2 mps 738 mmHg 82%
    23:00 +12°C° 0 mm 3 mps 739 mmHg 78%

    24 May, Friday

    Time Temperature Precipitation Wind Pressure Humidity
    00:00 +12°C° 0 mm 3 mps 739 mmHg 77%
    01:00 +11°C° 0 mm 3 mps 739 mmHg 76%
    02:00 +11°C° 0 mm 3 mps 739 mmHg 75%
    03:00 +11°C° 0.1 mm 3 mps 739 mmHg 78%
    04:00 +10°C° 0.1 mm 3 mps 739 mmHg 82%
    05:00 +10°C° 0.1 mm 3 mps 739 mmHg 85%
    06:00 +10°C° 0.1 mm 3 mps 739 mmHg 85%
    07:00 +10°C° 0.1 mm 3 mps 739 mmHg 85%
    08:00 +11°C° 0.1 mm 3 mps 739 mmHg 86%
    09:00 +12°C° 0 mm 3 mps 739 mmHg 83%
    10:00 +13°C° 0 mm 3 mps 739 mmHg 79%
    11:00 +14°C° 0 mm 3 mps 739 mmHg 76%
    12:00 +16°C° 0 mm 3 mps 738 mmHg 75%
    13:00 +17°C° 0 mm 3 mps 738 mmHg 75%
    14:00 +18°C° 0 mm 3 mps 738 mmHg 74%
    15:00 +18°C° 0.2 mm 3 mps 738 mmHg 75%
    16:00 +18°C° 0.2 mm 3 mps 738 mmHg 76%
    17:00 +18°C° 0.2 mm 3 mps 738 mmHg 77%
    18:00 +17°C° 0.6 mm 3 mps 737 mmHg 81%
    19:00 +16°C° 0.6 mm 3 mps 737 mmHg 85%
    20:00 +14°C° 0.6 mm 3 mps 737 mmHg 89%
    21:00 +14°C° 0.9 mm 3 mps 737 mmHg 91%
    22:00 +14°C° 0.9 mm 3 mps 737 mmHg 93%
    23:00 +13°C° 0.9 mm 3 mps 737 mmHg 96%

    25 May, Saturday

    Time Temperature Precipitation Wind Pressure Humidity
    00:00 +13°C° 0.5 mm 3 mps 737 mmHg 96%
    01:00 +14°C° 0.5 mm 3 mps 737 mmHg 96%
    02:00 +14°C° 0.5 mm 3 mps 737 mmHg 97%
    03:00 +14°C° 0.2 mm 3 mps 737 mmHg 96%
    04:00 +14°C° 0.2 mm 3 mps 737 mmHg 96%
    05:00 +14°C° 0.2 mm 4 mps 737 mmHg 95%
    06:00 +14°C° 0.1 mm 4 mps 737 mmHg 95%
    07:00 +14°C° 0.1 mm 3 mps 737 mmHg 94%
    08:00 +14°C° 0.1 mm 3 mps 737 mmHg 93%
    09:00 +16°C° 0 mm 3 mps 737 mmHg 91%
    10:00 +16°C° 0 mm 3 mps 736 mmHg 88%
    11:00 +17°C° 0 mm 3 mps 736 mmHg 86%
    12:00 +18°C° 0.1 mm 3 mps 736 mmHg 82%
    13:00 +19°C° 0.1 mm 3 mps 736 mmHg 78%
    14:00 +20°C° 0.1 mm 2 mps 736 mmHg 74%
    15:00 +20°C° 0.7 mm 2 mps 736 mmHg 76%
    16:00 +20°C° 0.7 mm 2 mps 736 mmHg 79%
    17:00 +20°C° 0.7 mm 2 mps 736 mmHg 81%
    18:00 +18°C° 0.7 mm 2 mps 736 mmHg 85%
    19:00 +18°C° 0.7 mm 1 mps 736 mmHg 90%
    20:00 +16°C° 0.7 mm 1 mps 735 mmHg 94%
    21:00 +16°C° 0 mm 1 mps 735 mmHg 94%
    22:00 +15°C° 0 mm 1 mps 735 mmHg 95%
    23:00 +15°C° 0 mm 1 mps 735 mmHg 96%
    Show more